Index of /drivers/EISU/
../
a2000.zip 06-May-2026 08:17 62061
abb_et.zip 06-May-2026 08:17 92340
abb_m1m.zip 24-Oct-2025 02:35 61894
ac_su.zip 06-May-2026 08:17 3003
ac_v2.zip 06-May-2026 08:17 64673
access4000x.zip 06-May-2026 08:17 68351
acintrudedc.zip 06-May-2026 08:17 1380
acm03u1.zip 06-May-2026 08:17 89969
acpowersaver_temperature.zip 06-May-2026 08:17 1238
acrel_aem.zip 06-May-2026 08:17 61470
acrel_pz.zip 19-Mar-2026 06:26 93376
acrelacr.zip 06-May-2026 08:17 61583
acrelamc.zip 06-May-2026 08:17 59903
acreldtsd1352.zip 06-May-2026 08:17 71599
acrelpz72l.zip 06-May-2026 08:17 59355
aeg_ms10m.zip 06-May-2026 08:17 63267
aeg_ms10se.zip 06-May-2026 08:17 63867
agc150.zip 06-May-2026 08:17 72736
ai_general_temp_humid.zip 06-May-2026 08:17 62292
ai_water2.zip 06-May-2026 08:17 1725
aigeneralshaper.zip 06-May-2026 08:17 81566
airsys.zip 06-May-2026 08:17 80265
akshuayibump.zip 06-May-2026 08:17 77641
akshuayibump2.zip 06-May-2026 08:17 75834
akshuayiliejianac.zip 06-May-2026 08:17 84385
am5set.zip 06-May-2026 08:17 68339
amc100.zip 06-May-2026 08:17 120259
amc16z_1dc.zip 06-May-2026 08:17 59609
amc16z_2ac.zip 06-May-2026 08:17 68492
amc16z_2dc.zip 06-May-2026 08:17 6548
amc72_96.zip 06-May-2026 08:17 2008
amf20.zip 06-May-2026 08:17 88431
amf25.zip 06-May-2026 08:17 70210
arcm200l.zip 06-May-2026 08:17 1460
ascb1.zip 06-May-2026 08:17 63170
ascoc600.zip 06-May-2026 08:17 65469
babangmeter.zip 23-Sep-2024 09:43 59936
bat61cj.zip 18-Sep-2024 11:34 4890
battery24_voltage.zip 06-May-2026 08:17 1846
battery2v_32.zip 06-May-2026 08:17 117665
battery_24.zip 06-May-2026 08:17 3810
battery_32.zip 06-May-2026 08:17 117967
batterycurrent4_20_n100_100.zip 06-May-2026 08:17 1490
batteryvoltage4_20.zip 06-May-2026 08:17 1276
bepmw2800.zip 06-May-2026 08:17 59836
bmu24.zip 06-May-2026 08:17 2312
bt_48dc.zip 06-May-2026 08:17 67221
bt_s80_a3_cbah01_b14.zip 06-May-2026 08:17 82495
bt_venv.zip 06-May-2026 08:17 87342
btbacnetleng.zip 06-May-2026 08:17 12458
btbacnetleng1.zip 06-May-2026 08:17 9502
btbacnetleng170.zip 06-May-2026 08:17 4275
btbacnetleng171_172.zip 06-May-2026 08:17 2613
btbacnetleng173_174_175.zip 06-May-2026 08:17 2924
btbacnetleng176_177.zip 06-May-2026 08:17 2754
btbat2000.zip 06-May-2026 08:17 69255
btbat2000_2.zip 06-May-2026 08:17 1575
btfengjidi.zip 06-May-2026 08:17 69206
bthengshiji.zip 21-Jun-2024 10:00 57371
bwdk326.zip 06-May-2026 08:17 67394
bzcdoorsensor.zip 06-May-2026 08:17 1522
c2000_a2_sdxa000_ax1.zip 06-May-2026 08:17 66393
camera.zip 06-May-2026 08:17 4151
canatal.zip 06-May-2026 08:17 75474
canatal_ms1554.zip 06-May-2026 08:17 71384
cavt.zip 06-May-2026 08:17 85808
cdq1s.zip 06-May-2026 08:17 72618
championups.zip 06-May-2026 08:17 105565
changjiyuncang.zip 06-May-2026 08:17 4785
changjiyuncang20.zip 06-May-2026 08:17 5497
climavenetaac.zip 06-May-2026 08:17 61619
cm02n600a0.zip 06-May-2026 08:17 80059
cmplus.zip 06-May-2026 08:17 70793
cms200.zip 06-May-2026 08:17 119043
cphp2200.zip 06-May-2026 08:17 1887
cpm1350.zip 06-May-2026 08:17 68438
cpm3310.zip 06-May-2026 08:17 60486
cscp_419.zip 06-May-2026 08:17 119869
ctdg_ac.zip 06-May-2026 08:17 62958
cuc01h.zip 06-May-2026 08:17 95406
cuc01hc.zip 06-May-2026 08:17 889
cuc01hc_419.zip 06-May-2026 08:17 114914
cuc0609h.zip 06-May-2026 08:17 515
cuc0609h_419.zip 06-May-2026 08:17 7200
cuc2000hi.zip 06-May-2026 08:17 77594
cuc21vb.zip 06-May-2026 08:17 197392
cws19_temperature_sp2.zip 06-May-2026 08:17 44428
cybermateevo.zip 06-May-2026 08:17 60919
cypd10a.zip 06-May-2026 08:17 61137
daneng6000.zip 06-May-2026 08:17 60385
datamate3000.zip 20-Mar-2026 05:15 78772
db4610.zip 06-May-2026 08:17 71602
dc4xdmk3.zip 06-May-2026 08:17 77915
dc5x.zip 02-Dec-2025 10:05 79994
dcm3366.zip 06-May-2026 08:17 63506
dcm3366d_w1.zip 06-May-2026 08:17 58403
dcm3366m_12_w1.zip 06-May-2026 08:17 60277
dcm3366ph241s.zip 11-Nov-2024 08:55 63228
dcm3366q.zip 03-Apr-2025 09:13 58882
dds3366m_w1.zip 06-May-2026 08:17 58570
debil64dido.zip 06-May-2026 08:17 47297
deif_h2.zip 06-May-2026 08:17 82632
delta_240_rc.zip 06-May-2026 08:17 80167
delta_adc380_200.zip 06-May-2026 08:17 101013
delta_dps_h.zip 06-May-2026 08:17 2624
deltahav36a.zip 06-May-2026 08:17 2591
deltahift.zip 06-May-2026 08:17 65134
deltanhnt.zip 06-May-2026 08:17 101760
deltant.zip 06-May-2026 08:17 2537
dfpm93.zip 15-Mar-2025 09:38 87342
diris_a40.zip 06-May-2026 08:17 61237
djddsd.zip 06-May-2026 08:17 65934
dk04.zip 06-May-2026 08:17 6797
dk04c.zip 06-May-2026 08:17 6216
dk09.zip 06-May-2026 08:17 76534
dkd46.zip 31-Mar-2025 06:22 93315
dkd46_419.zip 06-May-2026 08:17 6351
dm2300.zip 06-May-2026 08:17 62977
doctrl.zip 06-May-2026 08:17 1344
door_ms899_v5.zip 06-May-2026 08:17 63521
doorsensor.zip 06-May-2026 08:17 59435
doorxjl.zip 06-May-2026 08:17 2217
doorxjlb.zip 15-Sep-2025 09:15 154149
dpm8600.zip 06-May-2026 08:17 59151
dpu_dkln.zip 06-May-2026 08:17 1294
dse5210.zip 06-May-2026 08:17 81720
dse7310.zip 06-May-2026 08:17 74011
dse7310b.zip 06-May-2026 08:17 4239
dts100.zip 06-May-2026 08:17 65719
dts541.zip 06-May-2026 08:17 66982
dts541s.zip 06-May-2026 08:17 64634
dtsd3366d.zip 06-May-2026 08:17 73921
dtsd3366m4.zip 06-May-2026 08:17 3263
dtsd3366p4.zip 02-Nov-2025 01:32 1729
dv11_r2.zip 06-May-2026 08:17 1121
ea86.zip 06-May-2026 08:17 2236
eagle600.zip 06-May-2026 08:17 60800
eajk070swzl.zip 06-May-2026 08:17 44181
eatonups9390.zip 06-May-2026 08:17 4901
ecm2000.zip 06-May-2026 08:17 79055
em300.zip 06-May-2026 08:17 59244
em400.zip 06-May-2026 08:17 64484
engine6.zip 06-May-2026 08:17 172337
epm600k.zip 06-May-2026 08:17 6956
et903.zip 06-May-2026 08:17 86831
et903e.zip 06-May-2026 08:17 68127
evocybermatedx.zip 16-Jan-2025 05:51 85776
evocybermatedxmodbus.zip 06-May-2026 08:17 75811
evou4xrowcw.zip 06-May-2026 08:17 89459
evou4xrowdx.zip 06-May-2026 08:17 122544
ex8_33.zip 06-May-2026 08:17 61967
exm2ups.zip 06-May-2026 08:17 95996
fansensor.zip 06-May-2026 08:17 44013
fc102.zip 06-May-2026 08:17 63580
fengji1.zip 06-May-2026 08:17 73619
fengji2.zip 06-May-2026 08:17 68196
fkdpc100ej.zip 06-May-2026 08:17 58242
fourseaats.zip 06-May-2026 08:17 2114
fresh_air.zip 06-May-2026 08:17 68965
ganshi_temperature.zip 06-May-2026 08:17 59192
gassensor.zip 06-May-2026 08:17 61329
geats.zip 06-May-2026 08:17 60225
general_temp_humid.zip 06-May-2026 08:17 96546
general_temp_humidb.zip 06-May-2026 08:17 1140
glassbroken.zip 06-May-2026 08:17 1406
gm6650dc.zip 06-May-2026 08:17 81544
gree.zip 06-May-2026 08:17 62690
greebmsac.zip 06-May-2026 08:17 76853
greejkf20cnnab.zip 06-May-2026 08:17 79594
greestationac.zip 06-May-2026 08:17 80095
gstinet03.zip 06-May-2026 08:17 242
gtr85.zip 06-May-2026 08:17 70853
gu320a.zip 06-May-2026 08:17 67012
gu631a.zip 06-May-2026 08:17 76977
h2sensor.zip 06-May-2026 08:17 59439
h3gta.zip 06-May-2026 08:17 65185
h3gtabatterybalancer160.zip 06-May-2026 08:17 76141
h3gtc.zip 04-Feb-2026 07:55 64229
haihong.zip 06-May-2026 08:17 73269
haiwu.zip 10-Jan-2025 09:43 109623
haiwucsaf.zip 13-Nov-2024 07:03 131864
hanguang4pac.zip 24-Jun-2025 01:24 57631
hanguang4pdc.zip 24-Jun-2025 01:24 56624
hat400.zip 06-May-2026 08:17 65018
hat500.zip 06-May-2026 08:17 66731
hat600.zip 06-May-2026 08:17 67629
hbzs96k.zip 06-May-2026 08:17 60127
hc33.zip 06-May-2026 08:17 63203
hcccs03.zip 06-May-2026 08:17 66555
hds_sbms.zip 06-May-2026 08:17 73945
hgc300.zip 06-May-2026 08:17 86950
hgm6100.zip 06-May-2026 08:17 70500
hgm9300.zip 06-May-2026 08:17 90622
hgm9420n.zip 06-May-2026 08:17 154539
hgxy_sps.zip 06-May-2026 08:17 89323
hgxy_sps_tower.zip 03-Mar-2026 09:29 66965
hipulseu.zip 06-May-2026 08:17 81925
hisense.zip 06-May-2026 08:17 78252
hisense_v3.zip 06-May-2026 08:17 2411
hisenses.zip 06-May-2026 08:17 73112
hiwave_ac.zip 06-May-2026 08:17 4616
hongyindz.zip 06-May-2026 08:17 58837
huaweilibattery.zip 06-May-2026 08:17 66991
huayizfsltianjinlu.zip 06-May-2026 08:17 63618
humid.zip 06-May-2026 08:17 2173
humid2.zip 06-May-2026 08:17 1435
humid303mini.zip 06-May-2026 08:17 1244
humid_sp.zip 06-May-2026 08:17 58703
humid_sp2.zip 06-May-2026 08:17 60651
hvdc.zip 06-May-2026 08:17 93431
hvdy.zip 06-May-2026 08:17 70845
hzjk01b.zip 06-May-2026 08:17 67841
icntmint.zip 06-May-2026 08:17 67626
igntc.zip 06-May-2026 08:17 172199
il4amf25.zip 06-May-2026 08:17 74752
il4mrs16.zip 06-May-2026 08:17 73903
infraredgrating.zip 06-May-2026 08:17 1305
infraredsensor.zip 06-May-2026 08:17 1427
innotemperature.zip 06-May-2026 08:17 59060
ita.zip 06-May-2026 08:17 81023
iteaq88005274.zip 24-Jan-2025 09:42 110246
iteaqcoolfree14.zip 06-May-2026 08:17 111618
iteaqcoolrow5000.zip 06-May-2026 08:17 73042
iteaqcoolsmart.zip 06-May-2026 08:17 89774
iteaqsbms.zip 06-May-2026 08:17 67948
iteaqups.zip 06-May-2026 08:17 100040
iteaqupsur.zip 06-May-2026 08:17 63579
jbatterybalancer.zip 06-May-2026 08:17 2452
jbatterybalancer160.zip 06-May-2026 08:17 59436
jbatterycontroller.zip 06-May-2026 08:17 3182
jbms.zip 06-May-2026 08:17 5558
jbms_d.zip 06-May-2026 08:17 60108
jbms_e.zip 06-May-2026 08:17 63036
jdrk_rssj_6h.zip 06-May-2026 08:17 64937
jgctemperature24.zip 06-May-2026 08:17 64640
jigui_bms.zip 06-May-2026 08:17 58740
jk070sw.zip 06-May-2026 08:17 2072
jpmc.zip 06-May-2026 08:17 4264
jxbs3001h2s.zip 11-Sep-2024 03:59 1106
jzl485.zip 06-May-2026 08:17 66132
jzlbtse.zip 06-May-2026 08:17 79160
jzlcharger.zip 06-May-2026 08:17 2454
jzlcharger2.zip 06-May-2026 08:17 1340
jzlcharger3.zip 06-May-2026 08:17 61607
jzlchargerfsbfbi.zip 06-May-2026 08:17 64741
jzlkd.zip 06-May-2026 08:17 58761
jzlmcc.zip 06-May-2026 08:17 1270
jzlvolcur.zip 14-Oct-2024 07:34 58004
k200.zip 06-May-2026 08:17 70638
kddsv22.zip 06-May-2026 08:17 157218
kelongmr33m.zip 06-May-2026 08:17 104723
kn10.zip 06-May-2026 08:17 89733
kstar_ups_megatec.zip 06-May-2026 08:17 85854
kstarmatrixair.zip 06-May-2026 08:17 85875
kstarups.zip 06-May-2026 08:17 138683
kstarupsbt.zip 06-May-2026 08:17 128885
libvdevice.so 30-Apr-2024 07:22 1360468
liebert_pex.zip 06-May-2026 08:17 72250
liebert_ups.zip 06-May-2026 08:17 4037
ltech_engine.zip 06-May-2026 08:17 59804
m500f.zip 06-May-2026 08:17 1036
m520s.zip 06-May-2026 08:17 1036
m522s.zip 06-May-2026 08:17 3887
m522s_419.zip 06-May-2026 08:17 122333
m810g.zip 06-May-2026 08:17 878
m810g_419.zip 06-May-2026 08:17 125817
m816.zip 06-May-2026 08:17 68409
m822e.zip 06-May-2026 08:17 91257
ma01c.zip 06-May-2026 08:17 145708
ma01dh.zip 06-May-2026 08:17 66072
ma01dl.zip 21-Oct-2024 05:38 83427
mainverter.zip 06-May-2026 08:17 1582
mapowermeter.zip 06-May-2026 08:17 1659
mars16.zip 05-Jan-2026 09:39 70754
mb5000l.zip 06-May-2026 08:17 68514
mc2600.zip 06-May-2026 08:17 70080
mcgs.zip 06-May-2026 08:17 74598
mcgs_1aa1.zip 06-May-2026 08:17 65302
mcgs_1au1.zip 06-May-2026 08:17 2814
mcgs_3au1.zip 06-May-2026 08:17 58527
mcgs_3au3.zip 06-May-2026 08:17 62999
mcs1800.zip 06-May-2026 08:17 1152
mcs1800a.zip 06-May-2026 08:17 515
mcs6000.zip 06-May-2026 08:17 7110
mcs_fc3.zip 06-May-2026 08:17 84892
mdq_stb1_125.zip 06-May-2026 08:17 61056
mdtx_sc100e.zip 06-May-2026 08:17 75427
mdtx_sc100e_4.zip 06-May-2026 08:17 73123
mec048_h42c0.zip 06-May-2026 08:17 104081
mec10.zip 06-May-2026 08:17 1536
mec2x.zip 06-May-2026 08:17 79057
media_ac.zip 06-May-2026 08:17 75411
media_dcm.zip 06-May-2026 08:17 71729
mediamav.zip 13-Feb-2025 05:55 91024
mediamavb.zip 06-May-2026 08:17 87838
mediasaf.zip 06-May-2026 08:17 64523
met05_ac8.zip 06-May-2026 08:17 63615
meterdm2300n.zip 06-May-2026 08:17 60223
mindsecdps4d08.zip 06-May-2026 08:17 72288
modbus_bd330.zip 06-May-2026 08:17 2604
modbus_db600.zip 06-May-2026 08:17 3391
modbus_epower.zip 06-May-2026 08:17 2486
modbus_hisense.zip 06-May-2026 08:17 58616
modbus_md500.zip 06-May-2026 08:17 3290
modbus_vertiv_ac.zip 06-May-2026 08:17 69417
motor_battery.zip 06-May-2026 08:17 56774
motor_battery12.zip 06-May-2026 08:17 54629
mrs16l4.zip 06-May-2026 08:17 83565
ms10.zip 06-May-2026 08:17 66748
ms10fg.zip 06-May-2026 08:17 89913
ms19mb.zip 06-May-2026 08:17 72529
ms20.zip 06-May-2026 08:17 209101
mt_ghj.zip 06-May-2026 08:17 1308
multiinstrument.zip 06-May-2026 08:17 59889
multism18.zip 06-May-2026 08:17 63120
nb_temperature.zip 06-May-2026 08:17 2704
ndq5.zip 06-May-2026 08:17 60519
nes96xx.zip 06-May-2026 08:17 65528
nlk8do.zip 06-May-2026 08:17 44544
np9801.zip 06-May-2026 08:17 109383
ntc_temperature.zip 06-May-2026 08:17 49460
nxr.zip 06-May-2026 08:17 7676
p127.zip 06-May-2026 08:17 61159
p4gs0207cm.zip 06-May-2026 08:17 87407
pa194i.zip 06-May-2026 08:17 60051
pa194u.zip 06-May-2026 08:17 1309
pa2000.zip 06-May-2026 08:17 62394
pcc2110.zip 06-May-2026 08:17 71454
pd1688z.zip 06-May-2026 08:17 61796
pd194e.zip 06-May-2026 08:17 2417
pd194ui.zip 06-May-2026 08:17 60269
pd195ze31.zip 06-May-2026 08:17 1506
pd510.zip 06-May-2026 08:17 62118
pd606.zip 06-May-2026 08:17 69806
pdu8000.zip 06-May-2026 08:17 114665
pex3dx.zip 06-May-2026 08:17 80674
pex4s.zip 06-May-2026 08:17 127305
pexap.zip 06-May-2026 08:17 82568
pilotspm206.zip 06-May-2026 08:17 2526
pm25.zip 06-May-2026 08:17 1895
pm25v2.zip 06-May-2026 08:17 58313
pm4s.zip 06-May-2026 08:17 78734
pm5350.zip 06-May-2026 08:17 61433
pm550.zip 06-May-2026 08:17 59059
pmac203.zip 06-May-2026 08:17 79703
pmac600_a.zip 06-May-2026 08:17 58872
pmac600_b.zip 06-May-2026 08:17 59588
pmac625.zip 06-May-2026 08:17 61825
pmac720.zip 06-May-2026 08:17 95383
pmac910.zip 06-May-2026 08:17 60407
pmacs963e.zip 06-May-2026 08:17 60406
pmc33x.zip 06-May-2026 08:17 87751
pmc630s.zip 06-May-2026 08:17 2464
pmchmi.zip 06-May-2026 08:17 81511
pmchmi_dc.zip 06-May-2026 08:17 80808
pmf632b.zip 26-Dec-2025 08:07 65741
pmf720y.zip 06-May-2026 08:17 70868
pmf910l.zip 06-May-2026 08:17 75308
pmhiwave.zip 06-May-2026 08:17 4273
pmtowerdoor.zip 06-Jan-2026 10:32 64136
pmu400.zip 06-May-2026 08:17 61118
pmu500.zip 06-May-2026 08:17 61660
pmw2800.zip 06-May-2026 08:17 89338
power_302a.zip 06-May-2026 08:17 67464
powercommand33.zip 06-May-2026 08:17 71241
powermeter_leak.zip 06-May-2026 08:17 48919
powerwizard.zip 06-May-2026 08:17 70725
prsh2.zip 06-May-2026 08:17 58128
psm15a.zip 06-May-2026 08:17 1019
psm15a_419.zip 06-May-2026 08:17 119494
psma.zip 06-May-2026 08:17 1375
psma9.zip 06-May-2026 08:17 1011
psma_419.zip 06-May-2026 08:17 121152
pstcn980.zip 06-May-2026 08:17 61597
qb2000n.zip 03-Apr-2025 08:30 57911
rpdu.zip 06-May-2026 08:17 74832
rssjdwn01r01.zip 06-May-2026 08:17 71391
rswsn01_humid_sp2.zip 06-May-2026 08:17 44380
rswsn01_temperature_sp2.zip 06-May-2026 08:17 44487
ruipu_ups.zip 06-May-2026 08:17 68076
sac3000.zip 06-May-2026 08:17 69553
sca.zip 06-May-2026 08:17 76206
schneidercompactnsx.zip 06-May-2026 08:17 61603
schneiderdm2300.zip 06-May-2026 08:17 60742
schneiderdm2365st.zip 06-May-2026 08:17 61506
scu.zip 06-May-2026 08:17 76476
scwchiller.zip 06-May-2026 08:17 86233
sdc.zip 06-May-2026 08:17 90077
sdhdbdm.zip 06-May-2026 08:17 62740
sdhdbmu.zip 06-May-2026 08:17 57362
sg2022.zip 06-May-2026 08:17 60739
sgc420.zip 21-Jan-2025 09:27 88157
sgc420mkii.zip 06-May-2026 08:17 90414
shendian.zip 06-May-2026 08:17 60202
sicam_p35.zip 06-May-2026 08:17 73717
sicamp37.zip 06-May-2026 08:17 88213
skmki.zip 06-May-2026 08:17 505
sl1882s_mz3_5_1.zip 06-May-2026 08:17 79973
sl1882s_mz3_5_2.zip 06-May-2026 08:17 82987
sl3500th3ct.zip 06-May-2026 08:17 71885
sl3500th3ct2.zip 06-May-2026 08:17 101455
sl6100th3ct.zip 06-May-2026 08:17 87555
sl6200th1ct2.zip 06-May-2026 08:17 213465
sl6200th1ct2v215.zip 06-May-2026 08:17 240280
sm3600b20.zip 06-May-2026 08:17 64104
smartli3.zip 06-May-2026 08:17 86762
smoke.zip 06-May-2026 08:17 394
smoke2.zip 06-May-2026 08:17 59068
smpdu.zip 06-May-2026 08:17 62117
smu06c.zip 06-May-2026 08:17 5974
smu06c_419.zip 06-May-2026 08:17 127310
snp1313.zip 06-May-2026 08:17 60316
socketagc150.zip 06-May-2026 08:17 2178
spc.zip 06-May-2026 08:17 62452
spm33.zip 06-May-2026 08:17 69005
st6_20k.zip 06-May-2026 08:17 2397
suacfanbalancer.zip 30-Oct-2024 06:33 59362
subattery.zip 06-May-2026 08:17 63283
sunrise_eda.zip 06-May-2026 08:17 81953
sutemperature3.zip 06-May-2026 08:17 58120
taac.zip 06-May-2026 08:17 60565
tbea_powermeter1.zip 06-May-2026 08:17 59279
tbea_powermeter2.zip 06-May-2026 08:17 58263
tc20.zip 06-May-2026 08:17 88668
tclstationac.zip 06-May-2026 08:17 78387
tcmeter.zip 02-Dec-2024 09:34 1701
temperature.zip 06-May-2026 08:17 2760
temperature2.zip 06-May-2026 08:17 1481
temperature3.zip 06-May-2026 08:17 2023
temperature303mini.zip 06-May-2026 08:17 1281
temperature_sp.zip 06-May-2026 08:17 59093
temperature_sp2.zip 06-May-2026 08:17 60903
temtransmitter.zip 06-May-2026 08:17 59334
threephasemeter.zip 06-May-2026 08:17 57193
thse10.zip 06-May-2026 08:17 1760
tlsd.zip 06-May-2026 08:17 520
tm5530.zip 06-May-2026 08:17 67950
tmcontroller.zip 06-May-2026 08:17 116009
tmcontroller20250701.zip 06-May-2026 08:17 112690
tmqth2.zip 06-May-2026 08:17 61521
tpc_7062.zip 06-May-2026 08:17 2238
ug20.zip 06-May-2026 08:17 3646
ug30.zip 06-May-2026 08:17 4018
ug40.zip 06-May-2026 08:17 78183
uh11.zip 06-May-2026 08:17 70513
ul33.zip 06-May-2026 08:17 5534
unicom_ac.zip 06-May-2026 08:17 1543
unicom_ac2.zip 06-May-2026 08:17 2792
unicom_acrpz96.zip 06-May-2026 08:17 2541
unicom_coolfree.zip 06-May-2026 08:17 86307
unicom_coolmaster3k.zip 06-May-2026 08:17 73115
unicom_dps6000.zip 06-May-2026 08:17 4246
unicom_h3gbatterybalancer160.zip 06-May-2026 08:17 66675
unicom_hmi2796s.zip 06-May-2026 08:17 59897
unicom_iplu_2801bm.zip 06-May-2026 08:17 65871
unicom_irmsensor.zip 06-May-2026 08:17 60626
unicom_ll11.zip 06-May-2026 08:17 5456
unicom_ll13.zip 06-May-2026 08:17 4711
unicom_nhbaccontroller.zip 06-May-2026 08:17 70206
unicom_p14.zip 06-May-2026 08:17 60899
unicom_pdu8000.zip 06-May-2026 08:17 64099
unicom_powermetertype1.zip 06-May-2026 08:17 61767
unicom_spm33.zip 06-May-2026 08:17 62013
unicom_ups.zip 06-May-2026 08:17 7998
unicom_ups5000.zip 06-May-2026 08:17 9477
unicom_yd2018.zip 06-May-2026 08:17 68720
unicom_yd6600.zip 06-May-2026 08:17 70963
unicom_yd8771y.zip 06-May-2026 08:17 60351
unicom_yd8771y1.zip 06-May-2026 08:17 59406
unicom_yd8771yb.zip 06-May-2026 08:17 1208
unicom_yn194e2s4.zip 06-May-2026 08:17 2331
unicompowermeter.zip 06-May-2026 08:17 59959
unicomxjslplc.zip 06-May-2026 08:17 111776
unicomzyt39124.zip 06-May-2026 08:17 65101
unicomzytmeter.zip 06-May-2026 08:17 66283
ups2000.zip 06-May-2026 08:17 88159
ups5000.zip 06-May-2026 08:17 13072
ups_3u_hq_m.zip 06-May-2026 08:17 5615
ups_eu_hq_m.zip 06-May-2026 08:17 83530
upsbattery650_voltage.zip 06-May-2026 08:17 1881
upsbattery750_voltage.zip 06-May-2026 08:17 1880
upsbattery_20.zip 06-May-2026 08:17 119893
upsbattery_29.zip 06-May-2026 08:17 119784
upsbattery_30.zip 06-May-2026 08:17 119782
upskstar.zip 06-May-2026 08:17 60259
vca.zip 06-May-2026 08:17 2739
vtumodel.zip 06-May-2026 08:17 1820
vtumodelyunbase.zip 06-May-2026 08:17 4919
water.zip 06-May-2026 08:17 394
water2.zip 06-May-2026 08:17 59295
wkcontroller.zip 06-May-2026 08:17 75319
wotpclevel3.zip 06-May-2026 08:17 63696
wrwf_kr1110.zip 06-May-2026 08:17 90828
xdfreshair.zip 06-May-2026 08:17 63746
xdfreshair2.zip 06-May-2026 08:17 59781
xdfreshaircool.zip 06-May-2026 08:17 79237
xfc500.zip 06-May-2026 08:17 62308
xhb_pqa_x2.zip 06-May-2026 08:17 56306
xhbpqax.zip 06-May-2026 08:17 62114
xiangjiangxiaomuxian.zip 06-May-2026 08:17 118324
xinruidabat23.zip 06-May-2026 08:17 58303
xjbabushui.zip 06-May-2026 08:17 63035
xjbadianbiaotongxun.zip 06-May-2026 08:17 61813
xjbaerdanyuan.zip 06-May-2026 08:17 75140
xjbahuanguan.zip 06-May-2026 08:17 67506
xjbahuanjing.zip 06-May-2026 08:17 58715
xjbalengjitongxun.zip 06-May-2026 08:17 62208
xjbalengquetatongxue.zip 06-May-2026 08:17 58762
xjbalengquetatongxun.zip 06-May-2026 08:17 63157
xjbaliudanyuan.zip 06-May-2026 08:17 65381
xjbalouceng.zip 06-May-2026 08:17 103440
xjbamoduanzongguan.zip 06-May-2026 08:17 66180
xjbasandanyuan.zip 06-May-2026 08:17 68539
xjbashuichulishebeitongxun.zip 06-May-2026 08:17 67852
xjbasidanyuan.zip 06-May-2026 08:17 65332
xjbawudanyuan.zip 06-May-2026 08:17 71666
xjbaxulengguan.zip 06-May-2026 08:17 64955
xjbaxulengguantongxun.zip 06-May-2026 08:17 57986
xjbayidanyuan.zip 06-May-2026 08:17 75294
xjchangjiliejian.zip 06-May-2026 08:17 74884
xjdh_kl.zip 06-May-2026 08:17 86733
xjdh_m.zip 06-May-2026 08:17 77367
xjdxba500.zip 06-May-2026 08:17 1753
xjdxba510.zip 06-May-2026 08:17 1599
xjdxba511.zip 06-May-2026 08:17 2027
xjdxba512.zip 06-May-2026 08:17 2367
xjdxba513.zip 06-May-2026 08:17 2222
xjdxba514.zip 06-May-2026 08:17 2375
xjdxba515.zip 06-May-2026 08:17 2494
xjdxba516.zip 06-May-2026 08:17 2758
xjdxba517.zip 06-May-2026 08:17 3143
xjdxba518.zip 06-May-2026 08:17 2282
xjdxba519.zip 06-May-2026 08:17 5301
xjdxba525.zip 06-May-2026 08:17 2030
xjdxba526.zip 06-May-2026 08:17 2043
xjdxba527.zip 06-May-2026 08:17 2086
xjdxba528.zip 06-May-2026 08:17 2088
xjdxba529.zip 06-May-2026 08:17 2094
xjdxba530.zip 06-May-2026 08:17 3137
xjdxba531.zip 06-May-2026 08:17 1363
xjdxba532.zip 06-May-2026 08:17 1436
xjdxba533.zip 06-May-2026 08:17 1645
xjdxba534.zip 06-May-2026 08:17 1760
xjdxba535.zip 06-May-2026 08:17 3069
xjdxba536.zip 06-May-2026 08:17 3794
xjdxba537.zip 06-May-2026 08:17 3064
xjdxba538.zip 06-May-2026 08:17 3589
xjunicompowermeter.zip 06-May-2026 08:17 59887
xwpc3.zip 06-May-2026 08:17 1575
yananac.zip 06-May-2026 08:17 1687
yananbattery.zip 06-May-2026 08:17 3310
yd2037yr.zip 06-May-2026 08:17 1977
yd2037ys.zip 06-May-2026 08:17 67703
yd2200.zip 06-May-2026 08:17 91865
yd_dems_bd2_rht.zip 06-May-2026 08:17 15432
yd_dems_vd2.zip 06-May-2026 08:17 2665
yf8015.zip 06-May-2026 08:17 1258
yinjia.zip 06-May-2026 08:17 64144
yz900.zip 06-May-2026 08:17 1478
zhm15m.zip 06-May-2026 08:17 61788
zhm19m.zip 06-May-2026 08:17 85422
zhongtian_419.zip 06-May-2026 08:17 5788
zmdoc.zip 06-May-2026 08:17 60268
znv_datamate3000.zip 06-May-2026 08:17 64198
znv_humid.zip 06-May-2026 08:17 1211
znv_temperature.zip 06-May-2026 08:17 1251
znvbm41.zip 06-May-2026 08:17 70426
znvbm41_48.zip 06-May-2026 08:17 69762
znvbm41_ups.zip 06-May-2026 08:17 66706
znvdtms10.zip 06-May-2026 08:17 64537
znvh3ga0.zip 06-May-2026 08:17 68173
znvh3ga0_48.zip 06-May-2026 08:17 66793
zt310d_419.zip 06-May-2026 08:17 5911
zxdcmeter.zip 06-May-2026 08:17 64831
zxdu300_500.zip 06-May-2026 08:17 1446
zxdu300_500_419.zip 06-May-2026 08:17 121425
zxdu68_419.zip 06-May-2026 08:17 118303
zxdu68_t601v41_419.zip 06-May-2026 08:17 119625
zxdu68_t601v50_419.zip 06-May-2026 08:17 6565
zxm10_dth.zip 06-May-2026 08:17 64620
zxm10_dth_b.zip 06-May-2026 08:17 64332
zxmeter18.zip 06-May-2026 08:17 58555
zxpowermeter4.zip 06-May-2026 08:17 58696
zxpowermeter6.zip 06-May-2026 08:17 58679